STARLINK-5370

decayed
NORAD ID: 56145 Int'l Des: 2023-046 Owner: SPXS Country: US Constellation: starlink
LEOCIRCULAR
グループ

STARLINK-5370について

説明を読み込み中...

高度履歴

Altitude vs Time

uPlot chart will show altitude changes over time

軌道要素

1 56145U 23046BF 24125.41358191 .35845946 93056-5 27544-2 0 9998
2 56145 42.9826 129.5492 0002067 343.0845 126.5409 16.39353409 62242
Epoch: May 4, 2024 • Age: 12025 hours

現在のステータス

Position data unavailable
打ち上げ日 Mar 29, 2023
運用期間 2.4 years
落下予定日 May 4, 2024
タイプ internet

技術仕様

分類 Payload
質量 305.00 kg
乾燥質量 290.00 kg
総質量 305.00 kg
長さ 0.20 m
直径 2.80 m
スパン 9.00 m
形状 Box + pan
製造者 SPXS
バスタイプ Starlink
フェーズステータス Unknown Transfer Status
所有者/国 SPXS/US

大規模コンステレーション

Loading constellations...